Showing default

YUNYAO-1 20, 58760

Orbit data source: Space-Track

YUNYAO-1 20, 58760 is a payload satellite owned by Yunyao yuhang (CN) in LEO that was launched on Thu, 11 Jan 2024 UTC via a YINLI-1 launch vehicle from the Yellow Sea Launch Area, China (YSLA). Payload-class satellites include a variety of spacecraft equipped with specific instruments for various scientific and technological missions. These include communications satellites like Starlink; space stations such as the ISS; scientific satellites like the Hubble; Earth observation satellites from companies like Planet Labs, Umbra, and HawkEye 360; GPS; miniature CubeSats for education and research; and military/defense satellites.

Loading next visibility...
Identifier
58760, 2024-009C
Orbit
LEO
Country
Flag of CNCN / PRC
Related business
Manufacturer
Changguang WJ
Mission
Operational Commercial Meteo Radio Occ.
Bus & Motor
YY-1, Unknown motor
Mass
~500 kg wet, ~500 kg dry
Launch date (UTC)
2024-01-11 (2 years ago)
Launch vehicle
YINLI-1
Launch site
Yellow Sea Launch Area, China (YSLA)
Object type
Payload
Rocket body
Debris
Shape & HBR
Box + 1 Pan, 2.5 m
Radar Cross Section
5.339 m², Medium (>0.1 m² and < 1m²)

Expand to show TLE details & history
Last TLE update: 1 day ago

TLE from 1 day ago
0 YUNYAO-1 20
1 58760U 24009C   26172.42101284  .00005074  00000-0  25972-3 0  9995
2 58760  49.9774 144.8482 0004230 316.0753  43.9862 15.18180969135338
Epoch: 2026-06-21T10:06Z
TLE epoch observation values (Epoch: 2026-06-21T10:06:15.509Z)
Latitude
-0.00008°
Longitude
83.66198°
Altitude
509.792 km
Speed
7.612 km/s
True Right ascension
09h 39m 23s
True Declination
0° 00' 00"
Sunlit
Object was in daylight at epoch
Visualization orbit readout
Latitude
Unknown
Longitude
Unknown
Altitude
Unknown
Speed
Unknown
Apparent Right ascension
Unknown
Apparent Declination
Unknown
Sunlit
N/A
Visualization observer readout
Local Sidereal Time
21:39:33
Azimuth
Unknown
Elevation
Unknown
Doppler factor
Unknown
Orbital elements
Apogee altitude
515.026 km
Perigee altitude
509.197 km
Semi-major axis
6,890.249 km
Eccentricity
0.00042
Inclination
49.9774°
RAAN
144.8482°
Arg. of periapsis
316.0753°
True anomaly
44.01988°
Mean anomaly
43.9862°
Eccentric anomaly
44.00304°
Mean motion
3.79482 °/min
Orbital period
94.87 mins
BSTAR
0.00025972
Loading maneuver chart data...
Computing Atmospheric mass density...
Loading historical data...
Loading historical data...
Loading historical data...
Loading historical data...
Loading historical data...
Loading historical data...
Loading historical data...
Other satellites on launch #9 in the year 2024 (2024-01-11 UTC)

Documentation

Showing up to 5 results
|